Home   Weather   Eferding   Past weeks

Flag for Austria Past Weather in Eferding, Upper Austria, Austria — Yesterday and Last 2 Weeks

Now
62 °F

Passing clouds.


Feels Like: 62 °F
Forecast: 40 / 64 °F
Wind: 8 mph from East

Location: Linz / Hoersching-Flughafen

Current Time: Apr 30, 2017 at 5:14:39 pm

Latest Report: Apr 30, 2017 at 4:00 pm


Visibility: 25 mi

Pressure: 29.90 "Hg

Humidity: 40%

Dew Point: 36 °F

Location of EferdingLocation

Past Weather in Eferding — Graph

°F

Eferding Temperature Yesterday

Maximum temperature yesterday: 53 °F (at 3:00 pm)
Minimum temperature yesterday: 37 °F (at 4:00 am)
Average temperature yesterday: 43 °F

High & Low Weather Summary for the Past Weeks

 TemperatureHumidityPressure
High64 °F (Apr 25, 3:00 pm)97% (Apr 28, 5:00 am)30.56 "Hg (Apr 28, 5:00 am)
Low30 °F (Apr 20, 5:00 am)39% (Apr 24, 4:00 pm)29.70 "Hg (Apr 25, 5:00 pm)
Average43 °F74%30.09 "Hg
* Reported Apr 15 4:00 pm — Apr 30 4:00 pm, Eferding, Weather by CustomWeather, © 2017

Note: Actual official high and low records may vary slightly from our data, if they occured in-between our weather recording intervals... More about our weather records

Advertising

Eferding Weather History for the Previous 24 Hours

Scroll right to see more
 ConditionsComfort  
Time TempWeatherWind HumidityBarometerVisibility
4:00 pm
Sun, Apr 30
62 °FPassing clouds.8 mph40%29.90 "Hg25 mi
3:00 pm60 °FPassing clouds.9 mph42%29.93 "Hg19 mi
2:00 pm58 °FSunny.8 mph43%29.95 "Hg19 mi
1:00 pm58 °FSunny.8 mph42%29.97 "Hg22 mi
12:00 pm55 °FSunny.8 mph44%30.00 "Hg22 mi
11:00 am53 °FSunny.8 mph57%30.02 "Hg14 mi
10:00 am49 °FSunny.6 mph66%30.04 "Hg16 mi
9:00 am44 °FSunny.6 mph74%30.06 "Hg19 mi
8:00 am41 °FSunny.3 mph81%30.08 "Hg22 mi
7:00 am35 °FSunny.N/A94%30.11 "Hg4 mi
6:00 am32 °FSunny.N/A96%30.11 "Hg2 mi
5:00 am33 °FChilly.N/A95%30.11 "Hg4 mi
4:00 am35 °FChilly.N/A95%30.11 "Hg4 mi
3:00 am35 °FChilly.N/A97%30.11 "Hg4 mi
2:00 am36 °FChilly.N/A95%30.11 "Hg5 mi
1:00 am37 °FChilly.N/A94%30.12 "Hg6 mi
12:00 am39 °FChilly.N/A89%30.11 "Hg12 mi
11:00 pm
Sat, Apr 29
40 °FPassing clouds.N/A88%30.11 "Hg11 mi
10:00 pm43 °FPassing clouds.N/A78%30.10 "Hg22 mi
9:00 pm47 °FPassing clouds.N/A63%30.09 "Hg25 mi
8:00 pm49 °FOvercast.N/A62%30.07 "Hg28 mi
7:00 pm49 °FOvercast.N/A65%30.07 "Hg25 mi
6:00 pm50 °FOvercast.N/A65%30.08 "Hg22 mi
5:00 pm50 °FOvercast.N/A65%30.08 "Hg19 mi
Weather by CustomWeather, © 2017

See weather overviewHow to use our weather pages